Location: Caixon
(43.4106°N, 0.0273°E)
Time: 22:29:16
(UTC+00:00)

Cosmos 1025 Rocket - Pass Details

Date: 16 October 2021
Orbit: 594 x 617 km, 82.5° (Epoch: 07 December)

Event Time Altitude Azimuth Distance (km) Brightness Sun altitude
Rises 05:44:14 0° 175° (S) 2,864 6.6 -6.4°
Reaches altitude 10° 05:46:28 10° 170° (S) 1,961 5.9 -6.0°
Maximum altitude 05:50:42 53° 94° (E) 750 4.0 -5.2°
Drops below altitude 10° 05:54:55 10° 18° (NNE) 1,962 5.8 -4.5°
Sets 05:57:10 0° 14° (NNE) 2,867 6.5 -4.1°
